Location: Fremersberg
(48.7537°N, 8.2173°E)
Time: 03:53:20
(UTC+00:00)

Daily predictions for brighter satellites

Satellite Brightness Start Highest point End
(mag) Time Altitude Azimuth Time Altitude Azimuth Time Altitude Azimuth
ATLAS CENTAUR R/B 4.2 00:07:54 10° WSW 00:13:58 75° NNW 00:30:55 10° ENE
Cosmos 1825 2.6 00:13:02 33° SSE 00:14:22 52° E 00:18:03 10° NNE
Cosmos 540 Rocket 4.2 00:15:11 24° SSE 00:17:42 41° ESE 00:22:28 10° NE
Cosmos 990 Rocket 4.0 00:14:43 10° NNW 00:19:53 68° WSW 00:22:38 28° S
Cosmos 1408 2.6 00:19:18 40° SSW 00:20:29 75° W 00:24:11 10° N
Cosmos 1242 Rocket 3.8 00:20:30 10° N 00:23:52 36° ENE 00:26:09 17° SE
SL-16 R/B 3.0 00:19:56 16° WSW 00:24:15 46° NW 00:29:44 10° NNE
Cosmos 405 Rocket 2.5 00:23:36 39° S 00:24:52 79° E 00:28:34 10° NNE
Cosmos 1656 Rocket 3.7 00:19:53 10° NNW 00:25:37 85° ENE 00:30:16 16° SSE
Cosmos 841 Rocket 4.2 00:23:03 23° SSE 00:25:43 41° ESE 00:30:32 10° NE
Cosmos 2221 2.9 00:21:34 10° N 00:25:50 59° ENE 00:28:23 23° SSE
Cosmos 2058 3.3 00:24:22 29° SSE 00:26:12 55° E 00:30:13 10° NNE
USA 229 DEB 3.6 00:22:35 23° SW 00:26:54 85° SE 00:33:50 10° NE
USA 229 3.6 00:22:43 23° SW 00:27:00 85° SE 00:33:56 10° NE
Meteor 2-13 Rocket 4.4 00:23:59 26° SSW 00:27:40 85° W 00:33:53 10° N
Cosmos 2237 Rocket 4.3 00:23:37 10° W 00:27:51 21° NW 00:32:07 10° N
X-37B 1.4 00:28:47 33° SE 00:28:47 33° SE 00:31:01 10° ESE
Cosmos 1898 Rocket 3.5 00:27:59 10° NNW 00:33:12 66° WSW 00:36:10 25° S
Cosmos 1937 Rocket 3.5 00:28:09 10° NNW 00:33:32 87° WSW 00:37:19 20° SSE
Nadezhda 4 Rocket 4.1 00:30:48 23° S 00:34:47 69° E 00:40:53 10° NNE
Cosmos 2369 Rocket 2.4 00:30:05 10° NW 00:35:40 55° WSW 00:38:58 24° S
NOSS 3-1 (C) 3.7 00:31:11 15° WSW 00:35:43 61° NW 00:42:12 10° NE
Aureole 3 Rocket 4.0 00:33:52 10° N 00:37:34 44° ENE 00:41:59 12° SSE
YAOGAN 11 4.1 00:35:34 28° S 00:37:50 71° WSW 00:42:21 10° NNW
Cosmos 1356 4.0 00:37:29 32° WSW 00:38:35 44° WNW 00:41:52 10° N
USA 307 4.2 00:38:07 22° SSE 00:39:01 24° SE 00:42:27 10° E
SJ 16-02 3.1 00:36:06 10° NW 00:39:02 18° W 00:40:01 17° WSW
FALCON 9 DEB 4.4 00:36:49 10° WNW 00:39:48 39° N 00:42:47 10° E
CREW DRAGON DEMO-1 DEB 2.1 00:40:05 83° W 00:40:10 87° NNW 00:42:36 10° ENE
USA 215 4.1 00:38:50 10° ENE 00:45:08 52° NNW 00:51:25 10° W
NOSS 2-3 (E) 4.3 00:42:31 17° WSW 00:45:39 52° NW 00:50:38 10° NE
NOSS 3-1 (A) 3.4 00:42:41 21° SW 00:46:34 79° NW 00:53:04 10° NE
Cosmos 2263 4.3 00:43:47 10° NW 00:49:22 58° WSW 00:53:06 21° S
ATLAS 5 CENTAUR R/B 2.8 00:48:04 20° SSE 00:49:40 26° ESE 00:53:15 10° ENE
CZ-4 R/B 3.8 00:46:12 10° NNE 00:50:52 78° WNW 00:53:33 26° SSW
Helios 1B rocket 3.6 00:47:48 10° NNE 00:51:34 34° E 00:54:08 17° SSE
USA 308 3.9 00:53:26 25° S 00:54:50 30° SE 00:58:35 10° ENE
Cosmos 1633 3.4 00:53:22 22° SSE 00:55:14 41° E 00:58:35 10° NNE
ADEOS Rocket 4.1 00:48:52 10° SE 00:55:46 50° ENE 01:02:01 10° N
Meteor 2-2 Rocket 4.5 00:50:06 10° NNW 00:56:04 63° W 01:00:07 21° S
FALCON 9 DEB 3.9 00:53:58 10° WNW 00:56:59 48° NNE 00:59:59 10° E
CZ-3B R/B 3.6 00:47:56 10° WNW 00:57:31 48° N 01:00:40 10° ENE
UNK 4.0 00:54:25 14° SSE 00:58:20 68° ENE 01:02:57 10° N
Cosmos 1606 2.6 00:58:03 10° N 01:01:56 89° E 01:04:12 23° S
Helios 1A 3.5 01:00:06 27° SSW 01:01:59 44° W 01:06:01 10° NNW
FALCON 9 DEB 4.0 01:00:43 10° WNW 01:03:45 46° NNE 01:06:46 10° E
Cosmos 1570 Rocket 4.3 01:01:44 21° S 01:05:08 60° ESE 01:10:18 10° NNE
SL-16 R/B 2.5 00:59:52 12° SSE 01:05:40 90° ENE 01:11:54 10° NNW
FALCON 9 DEB 3.7 01:04:11 10° WNW 01:07:15 52° NNE 01:10:17 10° E
Cosmos 372 Rocket 3.9 01:03:14 10° NNW 01:08:30 77° WSW 01:13:10 13° SSE
USA 305 3.4 01:10:32 25° SSW 01:12:34 43° SE 01:16:37 10° ENE
USA 290 2.9 01:11:15 25° S 01:12:45 46° ESE 01:15:52 10° NE
Lacrosse 4 Rocket 1.3 01:10:43 10° NNW 01:14:50 83° NE 01:18:54 10° SE
CZ-4C R/B 4.4 01:14:15 10° ESE 01:15:36 11° ESE 01:17:00 10° E
Cosmos 1092 Rocket 4.0 01:11:05 18° S 01:15:49 83° E 01:22:00 10° N
Cosmos 2098 Rocket 3.6 01:15:08 21° SSW 01:18:42 60° W 01:23:03 10° N
Cosmos 1763 Rocket 4.4 01:15:44 15° WSW 01:19:28 39° WNW 01:24:17 10° N
BREEZE-M R/B 3.4 01:18:12 23° SSW 01:19:54 37° SE 01:24:39 10° ENE
Resurs 1-4 Rocket 2.1 01:15:04 10° NNE 01:20:26 90° W 01:24:24 19° SSW
Cosmos 2208 Rocket 4.3 01:16:33 19° S 01:20:29 66° ESE 01:25:55 10° NNE
Cosmos 1437 Rocket 3.9 01:17:29 10° NNW 01:20:48 27° W 01:22:18 21° SW
USA 267 4.5 01:19:19 17° SW 01:20:51 19° WSW 01:25:15 10° W
Meteor 2-19 Rocket 4.5 01:16:27 18° S 01:21:12 90° ENE 01:27:23 10° N
Meteor 1-29 4.1 01:21:13 10° NNE 01:24:24 36° E 01:26:57 14° SSE
OE (NEXTSAT) 4.4 01:22:34 19° WSW 01:24:45 52° S 01:28:07 10° E
SL-4 R/B 2.4 01:22:33 10° WNW 01:26:15 54° N 01:29:43 10° E
Cosmos 1943 Rocket 4.1 01:26:32 10° W 01:27:56 11° W 01:29:20 10° WSW
MINOTAUR 4 R/B 4.2 01:26:32 12° SSE 01:29:49 73° ENE 01:33:22 10° N
NPP 3.7 01:26:10 10° NNE 01:31:37 89° ESE 01:35:57 16° SSW
ADEOS II 2.6 01:26:51 10° NNE 01:32:03 56° E 01:36:49 12° S
NOSS 2-2 (D) 3.2 01:30:21 22° SSW 01:32:20 60° SE 01:36:01 10° NE
USA 306 3.0 01:32:06 20° SW 01:34:54 59° SE 01:39:06 10° ENE
Lacrosse 5 rocket 2.8 01:31:46 10° NW 01:35:07 35° NNE 01:38:30 10° E
Cosmos 921 Rocket 3.2 01:32:38 20° SW 01:35:26 58° WNW 01:39:36 10° NNE
Meteor 2-3 Rocket 4.1 01:31:29 12° S 01:36:39 61° E 01:42:10 10° NNE
FALCON 9 DEB 3.4 01:33:25 10° WNW 01:36:41 43° SW 01:39:54 10° SE
Cosmos 1943 3.9 01:33:25 14° SW 01:38:01 47° NW 01:43:30 10° NNE
CZ-2D R/B 2.2 01:33:57 10° N 01:39:08 66° WNW 01:43:15 16° SSW
Alouette 2 Rocket 4.4 01:36:55 10° N 01:40:21 43° ENE 01:44:12 10° SE
IDEFIX/ARIANE 42P 3.6 01:41:25 10° NNE 01:46:25 42° E 01:51:20 10° SSE
Cosmos 2151 3.0 01:44:56 16° SSW 01:48:12 73° W 01:52:26 10° N
Cosmos 1825 4.4 01:48:03 10° W 01:50:11 14° WNW 01:52:19 10° NNW
AQUA 3.9 01:46:28 10° N 01:51:14 73° WNW 01:55:17 14° SSW
EXPRESS MD2 4.4 01:41:54 10° WSW 01:51:17 76° SSE 01:55:42 10° ENE
Cosmos 1076 Rocket 4.3 01:49:45 16° SW 01:52:45 38° WNW 01:56:46 10° N
Cosmos 1437 3.9 01:52:35 10° NW 01:54:47 21° W 01:55:51 17° SW
Meteor 1-26 Rocket 4.4 01:49:17 10° NNW 01:55:09 87° W 02:01:08 10° S
Cosmos 1242 Rocket 4.3 01:55:58 10° NW 01:58:24 17° W 02:00:05 13° WSW
DELTA 2 R/B (1) 4.3 01:57:41 10° WSW 02:02:33 32° S 02:07:25 10° ESE
Cosmos 2221 4.4 02:00:25 10° NW 02:02:53 15° W 02:05:12 10° WSW
X-37B 1.4 02:01:26 10° WSW 02:04:18 31° SSW 02:07:09 10° SE
CBERS-1 4.3 02:00:39 10° NNE 02:05:47 69° ESE 02:10:54 10° S
IRS-1D 3.6 02:00:51 10° NNE 02:06:02 84° ESE 02:11:05 10° SSW
BREEZE-M DEB (TANK) 1.1 02:04:10 10° W 02:06:33 77° SSW 02:09:06 10° ESE
Cosmos 1812 3.6 02:05:57 10° N 02:09:42 51° ENE 02:13:27 10° SSE
Cosmos 1553 Rocket 4.0 02:03:41 10° NNW 02:09:58 70° W 02:16:07 10° S
NOSS 2-2 (E) 3.8 02:08:02 11° WSW 02:11:15 47° NW 02:15:07 10° NE
Cosmos 2292 Rocket 2.7 02:09:53 13° SSW 02:12:24 59° W 02:15:23 10° N
SL-08 R/B 4.4 02:09:03 10° SE 02:13:31 47° ENE 02:18:05 10° N
CREW DRAGON DEMO-1 DEB 3.7 02:11:40 10° WNW 02:14:00 38° N 02:16:20 10° ENE
Cosmos 1697 Rocket 4.4 02:09:42 10° NNW 02:15:00 39° NE 02:20:16 10° ESE
FALCON 9 DEB 2.8 02:12:34 10° WNW 02:15:42 72° SSW 02:18:48 10° SE
S3M 4.0 02:09:52 10° N 02:16:04 89° WSW 02:22:17 10° S
Cosmos 1782 2.9 02:12:39 10° NNW 02:16:37 64° W 02:20:35 10° S
USA 281 3.2 02:11:26 10° SSE 02:18:01 83° WSW 02:24:39 10° NNW
Meteor 2-14 Rocket 4.5 02:12:18 10° S 02:18:24 86° W 02:24:35 10° N
Cosmos 1271 Rocket 2.6 02:14:50 10° NNW 02:18:36 89° WSW 02:22:20 10° S
USA 307 2.9 02:14:21 10° WSW 02:18:37 84° NNW 02:22:53 10° ENE
MSX 4.3 02:13:08 10° NNE 02:18:51 59° ESE 02:24:30 10° S
NOSS 2-2 (C) 3.9 02:21:37 10° WSW 02:24:56 44° NW 02:28:43 10° NNE
CZ-4C R/B 2.9 02:22:01 10° S 02:25:28 71° WSW 02:28:56 10° NNW
Helios 1B rocket 3.8 02:23:16 10° N 02:26:40 26° WNW 02:30:03 10° WSW
USA 215 4.5 02:21:23 10° ENE 02:27:29 44° N 02:33:36 10° WNW
ERBS 2.9 02:24:39 10° SSW 02:27:40 43° SE 02:30:46 10° ENE
Cosmos 1328 Rocket 3.6 02:26:17 10° NNW 02:30:37 69° W 02:34:58 10° S
NOSS 3-2 (A) 4.2 02:24:00 10° NW 02:31:27 87° NE 02:39:58 10° SE
FALCON 9 DEB 3.2 02:29:38 10° WNW 02:32:34 40° SW 02:35:28 10° SE
ATLAS 5 CENTAUR R/B 2.3 02:30:04 10° WSW 02:33:57 45° NW 02:38:24 10° NE
USA 308 3.1 02:30:20 10° WSW 02:34:34 71° NNW 02:38:50 10° ENE
SeaSat 1 2.8 02:30:23 10° NE 02:35:18 62° ESE 02:40:11 10° SSW
Spot 1 4.4 02:31:14 10° S 02:36:17 68° WSW 02:41:08 10° NNW
FALCON 9 DEB 3.1 02:36:28 10° WNW 02:39:28 44° SSW 02:42:26 10° SE
Meteor 2-6 Rocket 4.3 02:33:35 10° NNW 02:39:32 83° W 02:45:17 10° S
ADEOS Rocket 3.9 02:34:42 10° SSW 02:41:21 38° W 02:47:29 10° NNW
FALCON 9 DEB 3.4 02:39:56 10° WNW 02:42:49 35° SW 02:45:40 10° SSE
Cosmos 1980 Rocket 4.1 02:39:36 10° NNW 02:44:45 35° NE 02:49:52 10° ESE
